Hourly Data Report for October 13, 2016

All times are specified in Local Standard Time (LST). Add 1 hour to adjust for Daylight Saving Time where and when it is observed.

KUGAARUK CLIMATE
NUNAVUT

68°32'15.060" N
89°47'47.020" W
15.80 m
2303094
71407
NBB

Download Data

Hourly Data (October 2016)
Hourly Data Report for October 13, 2016
Temp Definition
°C
Dew Point Temp Definition
°C
Rel Hum Definition
%
Wind Dir Definition
10's deg

Wind Spd Definition
km/h
Visibility Definition
km
Stn Press Definition
kPa
Hmdx Definition


Wind Chill Definition


Weather Definition


TIME
00:00 -8.4 -10.8 83 9 15   100.76   -15 LegendNANA
01:00 -10.5 -12.1 88 5 12   100.77   -17 LegendNANA
02:00 -10.9 -12.6 87 5 8   100.77   -16 LegendNANA
03:00 -11.9 -13.5 88 5 12   100.79   -18 LegendNANA
04:00 -12.0 -13.7 87 6 16   100.80   -19 LegendNANA
05:00 -10.5 -12.0 89 5 13   100.80   -17 LegendNANA
06:00 -7.6 -9.0 89 7 16   100.77   -14 LegendNANA
07:00 -9.4 -11.4 86 8 14   100.76   -16 LegendNANA
08:00 -10.5 -13.1 81 3 2   100.75   -12 LegendNANA
09:00 -11.8 -14.7 79 2 5   100.78   -15 LegendNANA
10:00 -11.9 -15.5 75 7 5   100.77   -15 LegendNANA
11:00 -10.9 -14.3 76 7 8   100.77   -16 LegendNANA
12:00 -10.6 -13.7 78 6 6   100.77   -14 LegendNANA
13:00 -10.4 -13.6 77 7 9   100.78   -15 LegendNANA
14:00 -9.1 -11.4 84 9 12   100.78   -15 LegendNANA
15:00 -10.3 -12.0 87 5 8   100.79   -15 LegendNANA
16:00 -8.6 -10.1 89 8 5   100.79   -11 LegendNANA
17:00 -7.4 -9.0 88 5 8   100.78   -11 LegendNANA
18:00 -6.2 -8.2 86 6 13   100.77   -12 LegendNANA
19:00 -7.0 -9.2 84 6 13   100.77   -13 LegendNANA
20:00 -8.3 -10.1 86 7 11   100.77   -14 LegendNANA
21:00 -11.9 -13.6 87 8 7   100.76   -16 LegendNANA
22:00 -13.9 -15.4 89 7 5   100.75   -17 LegendNANA
23:00 -14.9 -16.5 87 7 4   100.73   -18 LegendNANA

Notes on Data Quality.

Legend

  • E = Estimated
  • M = Missing
  • NA = Not Available
  • ‡ = Partner data that is not subject to review by the National Climate Archives
Date modified: